Regional Weather Roundup
Issued by NWS

Home | Current Version | Previous Version | Text Only | Print | Product List | Glossary On
Versions: 1 2 3 4 5 6 7 8 9 10 11 12 13 14 15 16 17 18 19 20 21 22 23 24 25 26 27 28 29 30 31 32 33 34 35 36 37 38 39 40 41 42 43 44 45 46 47 48 49 50
000
ASUS44 KEWX 210402
RWRTX
SOUTH TEXAS REGIONAL WEATHER ROUNDUP
NATIONAL WEATHER SERVICE AUSTIN/SAN ANTONIO TX
1000 PM CST SAT DEC 20 2014

NOTE: "FAIR" INDICATED FEW OR NO CLOUDS BELOW 12,000 FEET WITH NO
SIGNIFICANT WEATHER AND/OR OBSTRUCTIONS TO VISIBILITY.

* - THESE STATIONS ARE NOT NWS OR FAA STATIONS...AND ARE NOT SUBJECT
    TO NWS AND FAA QUALITY CONTROL.

TXZ171-172-183>190-210500-
TEXAS HILL COUNTRY AND EDWARDS PLATEAU

CITY           SKY/WX    TMP DP  RH WIND       PRES   REMARKS
JUNCTION       CLOUDY    47  41  80 E3        30.13R
*LLANO         MOCLDY    45  39  81 CALM      30.19S
BURNET         CLOUDY    47  44  90 SE6       30.18S WCI  44
*HORSESHOE BAY MOCLDY    47  44  86 CALM      30.16S
*KERRVILLE     CLOUDY    45  42  89 SE3       30.16F
*FREDERICKSBRG CLEAR     41  40  95 CALM      30.15F
*ROCKSPRINGS   CLOUDY    46  45  93 SE13      30.15S WCI  41
*BOERNE STAGE  PTCLDY    37  34  87 CALM      30.18R
*CASTROVILLE   CLOUDY    53  43  70 SE5       30.19S
HONDO          CLOUDY    51  44  77 SE6       30.19S
*UVALDE        CLOUDY    45  43  91 S3        30.17S
DEL RIO        CLOUDY    52  47  83 SE13      30.14S
LAUGHLIN AFB   CLOUDY    51  47  84 S12       30.15S
CARRIZO SPRGS  CLOUDY    52  45  76 CALM      30.17R
$$

TXZ173-191>194-202-209-217>225-228-210500-
CENTRAL AND SOUTH CENTRAL TEXAS

CITY           SKY/WX    TMP DP  RH WIND       PRES   REMARKS
GEORGETOWN     CLOUDY    48  46  93 E3        30.16F
AUSTIN/BERGSTM CLOUDY    51  47  86 NE6       30.18S
AUSTIN/MABRY   CLOUDY    50  47  89 NE3       30.19S
*AUSTIN/EXEC   CLOUDY    48  48 100 NE6       30.19S FOG     WCI  46
*LAGO VISTA    CLOUDY    49  46  92 E5        30.16F FOG     WCI  47
SAN MARCOS     CLOUDY    50  46  87 NE8       30.18S WCI  47
NEW BRAUNFELS  CLOUDY    52  47  83 NE7       30.17R
RANDOLPH AFB   CLOUDY    52  47  83 E3        30.17
PT SAN ANTONIO CLOUDY    53  45  73 E2        30.16R
SAN ANTONIO    CLOUDY    53  45  74 E6        30.17S
STINSON FIELD  CLOUDY    54  46  74 E3        30.17R
*PLEASANTON    CLOUDY    53  47  82 CALM      30.19R
*LA GRANGE     CLOUDY    52  50  93 CALM      30.17S
*GIDDINGS      CLOUDY    49  47  93 E6        30.22S FOG     WCI  47
*GONZALES      NOT AVBL
$$

TXZ163>164-176>182-195>201-210>213-226-227-235-210500-
SOUTHEAST TEXAS

CITY           SKY/WX    TMP DP  RH WIND       PRES   REMARKS
COLLEGE STN    CLOUDY    50  45  83 NE7       30.19F WCI  47
*BRYAN         CLOUDY    49  45  87 CALM      30.21S
*CALDWELL      CLOUDY    48  46  93 NE6       30.22S WCI  46
*CROCKETT      CLOUDY    52  48  87 NE5       30.22F
*BRENHAM       CLOUDY    52  48  87 NE3       30.20S
HUNTSVILLE     CLOUDY    50  46  86 CALM      30.19S
CONROE         CLOUDY    50  47  89 N3        30.19S
HOUSTON BUSH   CLOUDY    51  48  89 N6        30.19R
HOUSTON HOBBY  CLOUDY    52  48  86 N5        30.18S
*HOUSTON SW AP CLOUDY    44  43  95 CALM      30.19R
PEARLAND       CLOUDY    52  49  89 E7        30.20R
HOUSTON HOOKS  CLOUDY    52  47  83 N5        30.18F
ELLINGTON FLD  MOCLDY    52  48  87 CALM      30.20R
SUGAR LAND     CLOUDY    52  48  86 CALM      30.18S
*HOUSTON EXEC  CLOUDY    52  46  82 E3        30.20R
*CLEVELAND MUN MOCLDY    45  45  99 CALM      30.20S FOG
*WHARTON       CLOUDY    53  50  91 NE3       30.19S
*COLUMBUS      CLOUDY    50  49  95 N3        30.18R
$$

TXZ214>216-236>238-210500-
THE UPPER TEXAS COAST

CITY           SKY/WX    TMP DP  RH WIND       PRES   REMARKS
*ORANGE        PTCLDY    48  46  91 N5        30.20S WCI  46
PORT ARTHUR    PTCLDY    50  46  86 NE8       30.17S WCI  47
GALVESTON      CLOUDY    54  50  86 N9        30.19R
ANGLETON       CLOUDY    52  50  93 N5        30.18S
*BAY CITY        N/A     55  53  95 CALM      30.18S
PALACIOS       CLOUDY    54  51  90 NE7       30.18R
$$

TXZ229>234-239>247-210500-
TEXAS COASTAL BEND AND RIO GRANDE PLAINS

CITY           SKY/WX    TMP DP  RH WIND       PRES   REMARKS
VICTORIA       CLOUDY    54  51  90 NE7       30.18S FOG
*BEEVILLE      CLOUDY    54  52  93 SE5       30.18R
ROCKPORT       CLOUDY    55  51  86 N7        30.17S
*PORT ARANSAS  CLOUDY    55  51  86 N7        30.16F
*PORT LAVACA   CLOUDY    53  52  95 N7        30.18S
*INGLESIDE     CLOUDY    56  50  81 NE7       30.17S
CORPUS CHRISTI CLOUDY    55  50  83 NE9       30.17S
CORPUS NAS     CLOUDY    56  52  86 NE8       30.16S
*ROBSTOWN      NOT AVBL
ALICE          CLOUDY    56  50  80 N7        30.16S
KINGSVILLE NAS CLOUDY    56  53  90 N7        30.17S
COTULLA        CLOUDY    53  45  74 E6        30.18R
LAREDO         NOT AVBL
$$

TXZ248>255-210500-
DEEP SOUTH TEXAS

CITY           SKY/WX    TMP DP  RH WIND       PRES   REMARKS
BROWNSVILLE    CLOUDY    57  54  89 N9        30.12S
PORT ISABEL    CLOUDY    59  55  87 N10       30.11F
*SOUTH PADRE   CLOUDY    61  59  94 NE14      30.11F
HARLINGEN      CLOUDY    57  53  86 N10       30.12F
*HEBBRONVILLE  CLOUDY    52  49  90 NE7       30.16S FOG
MCALLEN        CLOUDY    56  51  84 N6        30.15S
*WESLACO       CLOUDY    56  50  81 N7        30.14S
FALFURRIAS     CLOUDY    55  50  83 N3        30.15S
EDINBURG       CLOUDY    56  51  81 N5        30.15S
*ZAPATA        CLOUDY    53  48  83 CALM      30.15S
$$

TXZ213>215-236>238-242>244-246-247-251-254-255-210500-
CMAN STATIONS

STATION/POSITION TIME  TEMP    WIND        PRES    WAVE
                       AIR SEA DIR/SP/G            HT/PER
                 (UTC) (F)     (DEG/KT/KT) (MB)    (FT/S)
SABINE PASS      0300   53 60   50/  7/  9 1021.5
SEA RIM ST PARK  0300   53      50/  5/  7 1022.1
NORTH JETTY/GLS  0300   54 60   30/  8/  8   N/A
EAGLE POINT      0300   53 60   20/  5/  7 1021.8
MORGANS POINT    0300   53     360/  4/  7 1021.8
MISSION/ARANSAS  0300   54      30/  6     1023.0
PORT O`CONNOR    0300           10/ 11/ 13   N/A
PORT ARANSAS     0300   55 63  350/  8/  8 1021.7
MALAQUITE BEACH  0300   56 65  350/ 11/ 12 1020.5
BAFFIN BAY       0300   56      10/ 12/ 14 1020.8
PORT ISABEL      0300   60 67  360/ 12/ 15 1019.5
$$

GMZ080-GMZ150>470-210500-
OFFSHORE BUOY REPORTS

STATION/POSITION TIME  TEMP    WIND        PRES    WAVE
                       AIR SEA DIR/SP/G            HT/PER
                 (UTC) (F)     (DEG/KT/KT) (MB)    (FT/S)
20 E GALVESTON   0400   56 64  360/ 10/ 12 1021.0    2/ 6
90 E PT ARANSAS  0400   63 72   30/ 16/ 19 1020.1    5/ 7
35 NE PT MANSFLD 0300   64 73   30/ 14/ 17 1019.5    4/ 7
200 E PT ISABEL  0300   70 73   50/ 14/ 16 1017.4    4/ 6
$$



USA.gov is the U.S. government's official web portal to all federal, state and local government web resources and services.